Powrót do katalogu

STARLINK-35204

AktywnyŁącznośćVLEO
NORAD 65694·PAYLOAD·🇺🇸 United States

Wystrzelony Sep 21, 2025 z Cape Canaveral Space Force Station

Loading…

Następne Przeloty (najbliższe 24 godziny)

TLE

ŚwieżeSource: CelesTrak SupGP

Epoka: Sep 14, 2026, 14:07 UTC

1 65694C 25212U   26257.58868056  .00038439  00000+0  11364-2 0  2570
2 65694  53.1573 185.2669 0001205  95.1923  25.9169 15.34352186    11

Śledź STARLINK-35204 w czasie rzeczywistym z AllMySat

Download on the App Store